Regional Weather Roundup
Issued by NWS Newport/Morehead, NC

Current Version | Previous Version | Graphics & Text | Print | Product List | Glossary Off
Versions: 1 2 3 4 5 6 7 8 9 10 11 12 13 14 15 16 17 18 19 20 21 22 23 24 25 26 27 28 29 30 31 32 33 34 35 36 37 38 39 40 41 42 43 44 45 46 47 48 49 50

000
ASUS42 KMHX 310913
RWRMHX
WEATHER ROUNDUP FOR EASTERN NORTH CAROLINA
NATIONAL WEATHER SERVICE NEWPORT/MOREHEAD CITY NC
500 AM EDT TUE MAY 31 2016

NOTE: "FAIR" INDICATES FEW OR NO CLOUDS BELOW 12,000 FEET
WITH NO SIGNIFICANT WEATHER AND/OR OBSTRUCTIONS TO VISIBILITY

NCZ015>017-031-032-045>047-102-103-311000-
NORTH COAST

CITY           SKY/WX    TMP DP  RH WIND       PRES   REMARKS
EDENTON        CLOUDY   N/A N/A N/A CALM      29.93S
ELIZABETH CITY CLOUDY    70  69  97 N6        29.92S
KITTY HAWK     FOG       68  68 100 CALM      29.91S VSB 1/4
MANTEO         NOT AVBL

$$

NCZ045>047-081-094-103-104-311000-
CENTRAL COAST

CITY           SKY/WX    TMP DP  RH WIND       PRES   REMARKS
FRISCO         CLEAR     68  67  96 NE3       29.91S

$$

NCZ095-097-098-100-101-311000-
SOUTHERN COAST

CITY           SKY/WX    TMP DP  RH WIND       PRES   REMARKS
BEAUFORT       MOCLDY    73  72  96 CALM      29.88S
CEDAR ISLAND   NOT AVBL
JACKSONVILLE   CLOUDY    72  70  93 NE7       29.88S
PINEY ISLAND   NOT AVBL
WILMINGTON     CLOUDY    70  69  97 N5        29.88R


$$

NCZ011>013-027>030-043-044-078>080-089-090>093-098-311000-
COASTAL PLAIN

CITY           SKY/WX    TMP DP  RH WIND       PRES   REMARKS
AHOSKIE        CLOUDY    68  68  98 CALM      29.94R
CLINTON        CLOUDY    71  71 100 CALM      29.90S FOG
ELIZABETHTOWN  CLOUDY    71  71 100 CALM      29.89S FOG
GOLDSBORO      CLOUDY    70  70 100 NE6       29.90S FOG
GREENVILLE     LGT RAIN  70  70 100 NE3       29.95R
HAVELOCK       CLOUDY    73  71  93 N7        29.90S
KENANSVILLE    CLOUDY    70  70  99 CALM      29.91S FOG
KINSTON        FOG       70  70  99 N7        29.92S VSB 1/2
NEW BERN       MOCLDY    71  69  93 NE3       29.91S
RICHLANDS      CLOUDY    71  71 100 NE5       29.90S FOG
ROCKY MOUNT    CLOUDY    71  70  96 NE3       29.93R
WASHINGTON     FOG       69  68  99 N3        29.92S VSB 1/2
WHITEVILLE     CLOUDY    71  70  97 CALM      29.88R FOG

$$

AMZ130-135-150-152-154-156-158-170-250-252-270-ANZ085-086-088-633-658-670-311000-
MARINE OBSERVATIONS

STATION/POSITION TIME  TEMP    WIND        PRES    WAVE   SWELL
                       AIR SEA DIR/SP/G            HT/PER HT/PER
                 (UTC) (F)     (DEG/KT/KT) (MB)    (FT/S) (FT/S)
CHESAPEAKE LIGHT 0800   68      20/  3/  3 1013.8
64 E VA BEACH    0850   65 65  330/  8/  8 1012.1    7/ 8   7/ 8
DUCK             0800   66 58   10/  6/  8 1012.2
2 E DUCK         0811      62                N/A     4/ 7
OREGON INLET     0800   69 73   30/  1/  2 1012.6
13E OREGON INLT  0900      66                N/A     5/ 8   5/ 8
HATTERAS CG      0800   71 74   CALM  /  2 1012.1
DIAMOND BUOY     0850   79 80  200/ 14/ 16 1012.2    6/ 9   5/ 9
CAPE LOOKOUT     0900   75     120/  9/  9 1011.3
BEAUFORT LAB     0800   75 75  140/  7/  9 1010.8
30 SE NEW RVR IN 0825      76                N/A     5/ 9   2/11
27 SE WRIGHTSVLE 0808   76 76  120/  4/  8 1010.5
5 SE WRIGHTSVLE  0808   76 76  150/  6/ 10 1011.7
225 S CAPE HAT   0850   75 76  140/ 12/ 14 1014.1    4/ 8   3/ 8
41 SE CHARLESTON 0850   74 77  300/ 16/ 17 1010.0    5/ 5   3/ 8

$$




USA.gov is the U.S. government's official web portal to all federal, state and local government web resources and services.